Location: Corte Bragagnani
(45.3000°N, 11.1000°E)
Time: 08:28:55
(UTC+00:00)

Daily predictions for brighter satellites

Satellite Brightness Start Highest point End
(mag) Time Altitude Azimuth Time Altitude Azimuth Time Altitude Azimuth
ATLAS 2AS CENTAUR R/B 3.0 18:09:23 10° NW 18:17:01 67° NE 18:23:59 10° SE
SeaSat 1 2.4 18:14:52 10° NNE 18:19:50 78° ESE 18:24:45 10° SSW
STARLINK-1234 3.9 18:17:15 10° NW 18:20:11 36° NNE 18:23:07 10° E
STARLINK-1209 3.8 18:17:42 10° NW 18:20:40 38° NNE 18:23:37 10° E
ATLAS 5 CENTAUR R/B 2.0 18:16:55 10° S 18:20:41 36° ESE 18:24:50 10° NE
STARLINK-1233 4.2 18:18:08 10° NW 18:21:00 31° NNE 18:23:52 10° E
STARLINK-1212 4.1 18:18:37 10° NW 18:21:28 31° NNE 18:24:20 10° E
STARLINK-1105 4.1 18:19:02 10° NW 18:21:55 32° NNE 18:24:47 10° E
STARLINK-1206 4.1 18:19:31 10° NW 18:22:22 31° NNE 18:25:13 10° E
STARLINK-1247 4.1 18:19:59 10° NW 18:22:50 32° NNE 18:25:41 10° E
Cosmos 1603 4.2 18:17:35 10° SW 18:23:10 67° WNW 18:28:46 10° NNE
STARLINK-1227 4.1 18:20:23 10° NW 18:23:15 32° NNE 18:26:08 10° E
H-2A R/B 2.2 18:18:28 10° SSE 18:23:30 55° ENE 18:28:26 10° N
STARLINK-1218 4.1 18:20:53 10° NW 18:23:44 32° NNE 18:26:36 10° E
STARLINK-1226 4.1 18:21:19 10° NW 18:24:11 32° NNE 18:27:03 10° E
STARLINK-1254 4.1 18:21:44 10° NW 18:24:38 32° NNE 18:27:31 10° E
COSMOS 2455 3.6 18:19:04 10° NNW 18:24:41 38° NE 18:30:17 10° ESE
STARLINK-1215 4.1 18:22:13 10° NW 18:25:06 32° NNE 18:27:58 10° E
STARLINK-1231 4.1 18:22:40 10° NW 18:25:33 33° NNE 18:28:25 10° E
HJ-1C 3.6 18:22:54 10° S 18:26:15 78° WSW 18:29:38 10° NNW
STARLINK-1232 4.1 18:23:35 10° NW 18:26:28 33° NNE 18:29:20 10° E
STARLINK-1217 4.0 18:24:01 10° NW 18:26:55 33° NNE 18:29:48 10° E
STARLINK-1208 4.0 18:24:26 10° NW 18:27:21 33° NNE 18:30:15 10° E
Abrixas rocket 2.4 18:24:30 10° WNW 18:27:25 54° NNE 18:30:19 10° E
STARLINK-1229 4.0 18:24:55 10° NW 18:27:48 33° NNE 18:30:42 10° E
STARLINK-1271 4.0 18:25:22 10° NW 18:28:17 34° NNE 18:31:10 10° E
STARLINK-1270 4.0 18:25:50 10° NW 18:28:44 34° NNE 18:31:37 10° E
STARLINK-1154 4.0 18:26:16 10° NW 18:29:11 34° NNE 18:32:04 10° E
STARLINK-1197 4.0 18:27:10 10° NW 18:30:05 34° NNE 18:32:58 10° E
Cosmos 1140 Rocket 4.0 18:25:43 10° SSE 18:30:24 36° ESE 18:35:06 10° NE
STARLINK-1189 4.0 18:27:36 10° NW 18:30:31 34° NNE 18:33:25 10° E
STARLINK-1198 4.0 18:28:05 10° NW 18:30:59 35° NNE 18:33:53 10° E
STARLINK-1188 4.0 18:28:30 10° NW 18:31:25 35° NNE 18:34:20 10° E
STARLINK-1235 3.7 18:29:08 10° NW 18:32:09 41° NNE 18:35:09 10° E
STARLINK-1187 3.8 18:29:34 10° NW 18:32:33 38° NNE 18:35:33 10° E
Ariane Rocket 3.0 18:27:42 10° SSE 18:32:45 76° ENE 18:37:49 10° N
STARLINK-1199 3.9 18:30:27 10° NW 18:33:24 36° NNE 18:36:21 10° E
STARLINK-1191 3.9 18:30:54 10° NW 18:33:51 36° NNE 18:36:47 10° E
Cosmos 1943 Rocket 4.1 18:29:05 10° NW 18:33:56 32° WSW 18:38:48 10° SSW
STARLINK-1210 3.9 18:31:21 10° NW 18:34:19 36° NNE 18:37:13 10° E
STARLINK-1221 3.9 18:31:48 10° NW 18:34:45 37° NNE 18:37:40 10° E
STARLINK-1219 3.9 18:32:16 10° NW 18:35:13 37° NNE 18:38:06 11° E
STARLINK-1222 3.9 18:32:41 10° NW 18:35:40 37° NNE 18:38:31 11° E
STARLINK-1211 3.9 18:33:10 10° NW 18:36:08 37° NNE 18:38:58 11° E
STARLINK-1214 3.8 18:33:36 10° NW 18:36:35 37° NNE 18:39:24 11° E
STARLINK-1245 3.8 18:34:05 10° NW 18:37:02 37° NNE 18:39:48 11° E
STARLINK-1238 3.8 18:34:30 10° NW 18:37:28 38° NNE 18:40:15 11° E
Meteor 1-16 Rocket 4.2 18:32:23 10° S 18:37:48 82° E 18:43:26 10° NNE
Cosmos 614 Rocket 4.0 18:33:01 10° S 18:38:12 69° ESE 18:43:24 10° NNE
CZ-2C R/B 2.9 18:33:34 10° SSE 18:38:21 66° ENE 18:43:05 10° N
ERBS 4.3 18:35:50 10° NNW 18:38:21 19° NNE 18:40:52 10° ENE
STARLINK-1205 3.8 18:35:26 10° NW 18:38:24 38° NNE 18:41:07 12° E
STARLINK-1204 3.8 18:35:53 10° NW 18:38:50 38° NNE 18:41:33 12° E
APEX 4.3 18:32:47 10° NNW 18:39:16 74° ENE 18:44:28 10° SE
MONITOR-E 3.8 18:39:13 10° SSE 18:41:47 55° ENE 18:44:24 10° N
STARLINK-29 2.9 18:39:46 10° SW 18:42:56 66° SE 18:46:08 10° ENE
Cosmos 1190 Rocket 4.1 18:39:06 10° S 18:44:15 55° ESE 18:49:25 10° NNE
SJ-6B 3.0 18:40:51 10° SSE 18:44:53 57° ENE 18:48:57 10° N
Aureole 1 Rocket 4.1 18:37:54 10° S 18:45:21 72° ESE 18:51:09 10° NNE
Cosmos 1300 4.0 18:43:37 10° SE 18:46:34 22° E 18:49:33 10° NE
BREEZE-M DEB (TANK) 3.7 18:41:28 10° WNW 18:48:26 73° NNE 18:50:46 15° ESE
STARLINK-60 3.7 18:47:22 10° WSW 18:50:35 54° NNW 18:53:49 10° NE
Cosmos 2369 Rocket 4.0 18:46:17 10° NW 18:51:13 31° WSW 18:56:05 10° SSW
SL-24 R/B 4.2 18:48:47 10° NNE 18:52:29 38° E 18:55:56 10° SSE
CZ-2C R/B 4.0 18:50:53 10° NNE 18:55:24 45° E 18:59:48 10° S
Cosmos 2058 Rocket 3.1 18:54:28 10° S 18:58:52 60° E 19:03:20 10° NNE
Cosmos 1726 Rocket 3.7 18:57:08 10° S 19:01:32 83° W 19:06:01 10° N
SL-08 RB Rocket 3.7 18:57:20 10° SSE 19:01:53 74° ENE 19:06:31 10° N
STARLINK-1228 2.6 19:01:03 10° WNW 19:04:01 82° NNE 19:05:31 26° ESE
Cosmos 1461 3.2 18:59:29 10° NW 19:04:03 84° WSW 19:08:01 14° SSE
Cosmos 1726 4.2 19:02:59 10° SW 19:06:22 32° WNW 19:09:44 10° N
Cosmos 921 Rocket 2.9 19:02:14 10° NNW 19:06:25 65° ENE 19:09:43 16° SSE
DMSP B5D2-2 4.3 19:01:33 10° NNE 19:06:35 46° E 19:11:35 10° S
Cosmos 1703 3.9 19:02:47 10° NNW 19:06:42 58° W 19:10:36 10° S
SL-4 R/B 2.9 19:04:04 10° W 19:07:15 37° NNW 19:10:30 10° NE
Meteor 2-17 Rocket 4.5 19:01:14 10° N 19:07:26 89° E 19:13:36 10° S
Cosmos 2341 Rocket 4.2 19:01:16 10° N 19:07:31 53° ENE 19:13:22 12° SSE
Cosmos 407 Rocket 3.6 19:04:43 10° SSW 19:09:51 77° WNW 19:15:00 10° NNE
Cosmos 1908 3.8 19:06:12 10° SSW 19:10:00 61° W 19:13:53 10° N
CZ-4C R/B 4.4 19:05:04 10° NNW 19:10:16 23° NNE 19:16:05 10° ENE
Cosmos 1340 Rocket 2.7 19:06:25 10° S 19:10:28 85° E 19:14:30 10° NNE
FREGAT/IRIS 3.9 19:08:15 10° SSW 19:10:48 36° W 19:13:22 10° NNW
STARLINK-1246 4.4 19:07:41 10° NW 19:11:40 42° NNE 19:14:15 19° E
Cosmos 2228 3.9 19:08:17 10° SSW 19:12:30 53° WNW 19:16:46 10° N
RESURS DK-1 4.5 19:10:35 10° NNE 19:12:50 14° NE 19:14:21 12° ENE
STARLINK-1201 3.1 19:09:50 10° NW 19:13:05 64° NNE 19:14:33 29° ESE
Cosmos 676 Rocket 4.0 19:08:16 10° S 19:13:26 60° ESE 19:18:37 10° NNE
COSMOS 2406 4.4 19:13:01 20° ESE 19:13:44 20° E 19:17:46 10° NE
STARLINK-1224 4.4 19:12:42 10° NW 19:16:42 44° NNE 19:19:04 21° E
ATLAS 5 CENTAUR R/B 4.5 19:13:39 10° S 19:17:46 14° SSE 19:18:54 13° SE
MetOp-A 4.1 19:13:31 10° SSE 19:18:47 78° ENE 19:24:09 10° NNW
STARLINK-1203 4.3 19:14:49 10° NW 19:18:55 48° NNE 19:21:13 23° E
Resurs 01 Rocket 1.9 19:17:44 23° SE 19:20:13 48° ENE 19:24:29 10° N
Cosmos 2058 4.0 19:16:46 10° NNE 19:20:18 27° ENE 19:21:10 25° E
STARLINK-1225 4.3 19:17:41 10° NW 19:21:42 46° NNE 19:23:51 24° E
MOS 1 Rocket 3.6 19:17:49 10° NNE 19:23:12 61° E 19:28:34 10° S
STARLINK-52 3.3 19:20:09 10° WSW 19:23:20 64° NNW 19:25:57 14° NE
CZ-2C R/B 2.6 19:19:23 10° NNE 19:24:30 56° E 19:29:37 10° S
Nadezhda 1 Rocket 4.4 19:18:24 10° SSW 19:24:45 68° W 19:31:05 10° N
BREEZE M DEB (TANK) 2.9 19:22:49 10° SW 19:25:48 52° SE 19:33:38 10° ENE
Cosmos 1812 Rocket 4.2 19:25:20 29° ESE 19:26:26 33° E 19:30:19 10° NNE
STARLINK-1230 4.2 19:22:38 10° NW 19:26:41 49° NNE 19:28:37 27° E
SPOT 3 Rocket 3.6 19:22:44 10° SSE 19:27:53 83° WSW 19:33:07 10° NNW
Cosmos 962 Rocket 4.4 19:22:15 10° N 19:28:26 81° E 19:34:09 12° S
ARGOS 4.0 19:24:15 10° S 19:29:26 49° W 19:34:39 10° NNW
Cosmos 1697 Rocket 4.2 19:26:06 10° N 19:30:26 22° NE 19:32:44 17° ENE
SL-8 Rocket 4.1 19:24:49 10° N 19:31:04 58° ENE 19:35:13 22° SSE
STARLINK-1243 4.1 19:27:36 10° NW 19:31:40 52° NNE 19:33:24 30° E
FALCON 9 DEB 3.7 19:28:14 10° WSW 19:31:41 58° NNW 19:34:33 14° NE
Iridium 2 4.0 19:33:27 39° ESE 19:34:13 45° E 19:37:52 10° NNE
Cosmos 2181 Rocket 4.0 19:28:52 10° S 19:34:59 59° E 19:41:02 10° NNE
Cosmos 1954 Rocket 3.9 19:29:48 10° SSW 19:35:03 87° ESE 19:40:18 10° NNE
USA 186 4.3 19:32:33 10° SSW 19:35:07 21° W 19:37:38 10° NW
NOSS 3-4 (C) 4.5 19:28:58 10° NW 19:35:49 53° WSW 19:42:37 13° SSE
STARLINK-1236 4.0 19:32:35 10° NW 19:36:40 55° NNE 19:38:11 34° E
STARLINK-67 4.3 19:37:17 10° W 19:39:23 22° SW 19:39:24 22° SW
Cosmos 1741 Rocket 4.4 19:41:05 29° SSE 19:43:05 41° ESE 19:48:03 10° NE
Cosmos 2366 rocket 4.0 19:39:07 10° N 19:45:12 59° ENE 19:48:11 30° SE
Cosmos 1076 Rocket 3.7 19:41:19 10° N 19:45:31 51° ENE 19:46:20 44° ESE
BREEZE-M DEB (TANK) 4.1 19:42:03 10° SW 19:45:56 32° S 19:45:56 32° S
STARLINK-1269 3.8 19:42:31 10° NW 19:46:39 62° NNE 19:47:44 43° E
Cosmos 1959 Rocket 4.5 19:43:10 10° N 19:49:27 66° E 19:52:36 30° SSE
Cosmos 1656 4.2 19:44:11 10° NNW 19:49:37 44° ENE 19:51:23 34° E
Cosmos 1763 Rocket 3.8 19:45:10 10° N 19:50:11 47° ENE 19:51:29 38° ESE
SPOT 1/Viking Rocket 4.2 19:50:06 33° E 19:51:14 37° ENE 19:56:00 10° N
STARLINK-1200 3.7 19:47:30 10° NW 19:51:38 66° NNE 19:52:31 50° E
GRACE-FO 1 4.5 19:50:50 51° S 19:51:42 85° E 19:55:26 10° N
GRACE-FO 2 4.5 19:51:14 51° S 19:52:06 86° E 19:55:49 10° N
Cosmos 1455 4.1 19:56:32 18° NE 19:56:32 18° NE 19:57:56 10° NNE
STARLINK-1234 4.0 19:53:06 10° WNW 19:55:47 34° SW 19:55:47 34° SW
STARLINK-1209 4.2 19:53:36 10° WNW 19:56:15 32° SW 19:56:15 32° SW
STARLINK-1192 3.6 19:52:28 10° NW 19:56:37 71° NNE 19:57:18 57° E
STARLINK-1233 3.6 19:53:53 10° WNW 19:56:38 45° WSW 19:56:38 45° WSW
STARLINK-1212 3.7 19:54:21 10° WNW 19:57:04 45° WSW 19:57:04 45° WSW
STARLINK-1105 3.7 19:54:47 10° WNW 19:57:31 44° WSW 19:57:31 44° WSW
STARLINK-1206 3.7 19:55:16 10° WNW 19:57:55 43° WSW 19:57:55 43° WSW
STARLINK-1247 3.8 19:55:44 10° WNW 19:58:22 42° WSW 19:58:22 42° WSW
Iridium 4 Rocket 3.0 19:54:50 10° N 19:58:57 56° E 19:59:06 56° E
STARLINK-1227 3.8 19:56:08 10° WNW 19:58:47 42° WSW 19:58:47 42° WSW
STARLINK-1218 3.8 19:56:38 10° WNW 19:59:13 41° WSW 19:59:13 41° WSW
USA 234 3.4 19:53:39 10° ENE 19:59:54 46° SE 20:06:08 10° SSW
Dummy Sat-02 4.4 19:59:55 76° ESE 20:00:03 78° E 20:03:49 10° N
STARLINK-1226 3.8 19:57:05 10° WNW 19:59:40 41° WSW 19:59:40 41° WSW
STARLINK-1254 3.9 19:57:30 10° WNW 20:00:06 41° WSW 20:00:06 41° WSW
Cosmos 1980 Rocket 3.8 19:56:25 10° N 20:00:35 21° NE 20:02:02 19° ENE
STARLINK-1215 3.9 19:57:59 10° WNW 20:00:32 39° WSW 20:00:32 39° WSW
STARLINK-1231 3.9 19:58:27 10° WNW 20:00:58 39° WSW 20:00:58 39° WSW
Cosmos 1174 4.1 19:57:17 10° NNW 20:01:32 78° NE 20:02:39 53° SE
STARLINK-1244 3.5 19:57:32 10° NW 20:01:42 76° NNE 20:02:10 65° E
STARLINK-1232 4.0 19:59:22 10° WNW 20:01:50 38° WSW 20:01:50 38° WSW
Cosmos 1892 2.8 19:58:33 10° N 20:02:13 59° ENE 20:02:13 59° ENE
STARLINK-1217 4.0 19:59:48 10° WNW 20:02:16 37° WSW 20:02:16 37° WSW
Abrixas rocket 3.5 20:00:10 10° W 20:02:07 30° WSW 20:02:07 30° WSW
STARLINK-1208 4.0 20:00:13 10° WNW 20:02:43 38° WSW 20:02:43 38° WSW
H-2A R/B 4.4 19:59:29 10° SW 20:03:14 20° W 20:06:57 10° NW
STARLINK-1229 4.1 20:00:42 10° WNW 20:03:07 36° WSW 20:03:07 36° WSW
STARLINK-1271 4.1 20:01:10 10° WNW 20:03:34 36° WSW 20:03:34 36° WSW
STARLINK-1270 4.1 20:01:38 10° WNW 20:04:00 35° WSW 20:04:00 35° WSW
STARLINK-1154 4.2 20:02:05 10° WNW 20:04:26 35° WSW 20:04:26 35° WSW
ATLAS 5 CENTAUR R/B 3.5 20:01:31 10° WSW 20:05:20 31° NW 20:09:37 10° NNE
STARLINK-1197 4.2 20:02:59 10° WNW 20:05:18 34° WSW 20:05:18 34° WSW
STARLINK-1189 4.3 20:03:25 10° WNW 20:05:43 33° WSW 20:05:43 33° WSW
STARLINK-1138 3.5 20:02:25 10° WNW 20:06:36 81° NNE 20:06:52 75° E
STARLINK-1198 4.3 20:03:54 10° WNW 20:06:10 33° WSW 20:06:10 33° WSW
Cosmos 1825 3.9 20:03:42 10° NNE 20:05:39 22° NE 20:05:39 22° NE
STARLINK-1188 4.3 20:04:20 10° WNW 20:06:35 33° WSW 20:06:35 33° WSW
Cosmos-2242 4.2 20:08:41 30° NE 20:08:41 30° NE 20:11:23 10° NNE
ATLAS 2AS CENTAUR R/B 4.2 20:01:10 10° NW 20:07:26 31° WSW 20:13:00 11° SSW
STARLINK-1187 4.5 20:05:28 10° WNW 20:07:42 29° WSW 20:07:42 29° WSW
STARLINK-1199 4.4 20:06:17 10° WNW 20:08:31 31° WSW 20:08:31 31° WSW
STARLINK-1191 4.4 20:06:44 10° WNW 20:08:56 31° WSW 20:08:56 31° WSW
STARLINK-1210 4.5 20:07:12 10° WNW 20:09:23 30° WSW 20:09:23 30° WSW
STARLINK-1221 4.5 20:07:39 10° WNW 20:09:49 30° WSW 20:09:49 30° WSW
COSMOS 2455 3.7 20:05:01 10° NW 20:10:42 44° WSW 20:13:57 24° S
STARLINK-1143 3.5 20:07:24 10° WNW 20:11:34 86° NNE 20:11:39 85° ENE
Cosmos 1356 Rocket 4.3 20:13:46 36° NE 20:13:46 36° NE 20:16:38 10° NNE
ERBS 3.0 20:11:42 10° NW 20:14:20 51° NW 20:14:20 51° NW
STARLINK-1241 3.5 20:12:25 10° WNW 20:16:28 84° W 20:16:28 84° W
IGS 5A 3.6 20:20:27 64° NE 20:20:27 64° NE 20:24:13 10° N
SAR-Lupe-2 4.0 20:17:50 10° N 20:21:14 59° WNW 20:21:14 59° WNW
STARLINK-1239 3.7 20:17:23 10° WNW 20:21:14 74° W 20:21:14 74° W
ATLAS CENTAUR R/B 2.8 20:19:23 10° NNW 20:22:10 26° NNE 20:22:10 26° NNE
Spot 2 Rocket 3.5 20:22:15 55° S 20:23:23 81° WSW 20:28:31 10° NNW
Cosmos 1821 Rocket 4.2 20:19:39 10° N 20:25:52 51° ENE 20:26:40 48° E
USA 32 3.9 20:20:59 10° N 20:26:13 65° E 20:26:23 64° E
STARLINK-1240 3.9 20:22:22 10° WNW 20:26:01 65° W 20:26:01 65° W
Cosmos 1850 Rocket 3.9 20:24:22 30° SSW 20:27:00 82° WNW 20:32:13 10° NNE
Terra 2.8 20:29:53 34° NE 20:29:53 34° NE 20:33:35 10° N
Cosmos 841 Rocket 3.6 20:24:13 10° NNW 20:29:25 57° ENE 20:29:32 57° ENE
SPOT 5 3.4 20:31:40 40° NE 20:31:40 40° NE 20:34:57 10° N
Cosmos 2082 Rocket 3.9 20:34:09 19° ENE 20:34:09 19° ENE 20:36:01 10° NE
STARLINK-1216 4.1 20:27:20 10° WNW 20:30:47 57° W 20:30:47 57° W
Cosmos 2278 4.4 20:26:50 10° NNW 20:32:07 38° NE 20:32:29 38° ENE
Meteor 2-10 Rocket 3.4 20:33:52 70° E 20:33:52 70° E 20:39:09 10° NNE
SL-08 R/B 4.4 20:29:01 10° N 20:35:12 87° W 20:36:45 54° S
STARLINK-1237 4.3 20:32:18 10° WNW 20:35:33 49° W 20:35:33 49° W
Cosmos 1833 Rocket 3.2 20:39:02 43° ENE 20:39:02 43° ENE 20:43:04 10° NNE
CARTOSAT-1 4.2 20:39:31 47° NNE 20:39:31 47° NNE 20:42:48 10° N
Cosmos 468 Rocket 4.4 20:36:50 10° NNW 20:41:51 53° WSW 20:42:31 49° SW
ERS-1 Rocket 2.9 20:47:01 80° NNE 20:47:01 80° NNE 20:51:48 10° NNW
SL-4 R/B 3.7 20:44:23 10° WNW 20:46:33 25° NNW 20:46:33 25° NNW
Cosmos 1408 4.2 20:44:42 10° NNW 20:46:55 34° NNW 20:46:55 34° NNW
RESURS DK-1 3.3 20:47:16 10° NNW 20:50:15 46° NW 20:50:15 46° NW
Cosmos 1766 Rocket 4.3 20:49:31 10° N 20:52:50 49° N 20:52:50 49° N
BREEZE M DEB (TANK) 4.0 20:48:47 10° W 20:53:25 41° NW 20:53:25 41° NW
Cosmos 1570 Rocket 4.1 20:49:17 10° NNW 20:54:32 74° W 20:54:32 74° W
Okean 3 Rocket 4.2 20:51:06 10° NNW 20:54:34 53° NNW 20:54:34 53° NNW
Resurs 01 Rocket 3.9 20:55:17 15° WSW 20:56:58 18° W 20:59:59 10° NW
COSMOS 2406 3.5 20:54:52 32° SW 20:57:28 65° WNW 21:03:11 10° NNE
CZ-4C R/B 3.2 20:53:14 10° NNW 21:00:15 59° NE 21:01:49 51° E
Cosmos 2151 4.3 21:04:39 10° NNW 21:07:35 37° NW 21:07:35 37° NW
Cosmos 1697 Rocket 2.9 21:09:20 10° NNW 21:14:29 69° WNW 21:14:29 69° WNW
Cosmos 2369 3.9 21:09:28 10° NNW 21:14:33 69° WNW 21:14:33 69° WNW
SL-16 R/B 3.5 21:31:52 10° N 21:36:11 31° NE 21:36:11 31° NE
Cosmos 2360 Rocket 4.2 21:33:32 10° N 21:37:13 17° NE 21:37:32 17° NE
USA 234 3.6 21:36:37 10° NE 21:43:04 63° NNW 21:49:30 10° WSW
Cosmos 2322 Rocket 3.6 21:38:56 10° N 21:43:04 29° NE 21:43:04 29° NE
Cosmos 1980 Rocket 2.9 21:39:36 10° NNW 21:43:48 51° NW 21:43:48 51° NW
ATLAS CENTAUR R/B 4.4 21:58:17 10° NW 21:58:21 10° NW 21:58:21 10° NW
Terra 3.9 22:08:45 22° WNW 22:08:45 22° WNW 22:11:06 10° NW
Mayak 1.3 22:03:43 10° N 22:04:58 18° N 22:04:58 18° N
Cosmos 2082 Rocket 3.3 22:15:56 40° NNW 22:15:56 40° NNW 22:20:26 10° NNE
Cosmos 1833 Rocket 4.4 22:20:38 25° WNW 22:21:49 27° NW 22:26:36 10° N
Cosmos 2219 Rocket 4.3 22:30:40 10° N 22:34:20 17° NE 22:34:42 17° NE
Cosmos 2344 4.4 22:27:27 10° NW 22:37:18 70° WSW 22:38:34 66° SSW
CZ-4C R/B 3.9 22:42:00 10° NW 22:47:00 36° W 22:47:00 36° W
COSMOS 2428 4.5 22:59:22 10° N 23:03:37 25° NE 23:03:37 25° NE
SL-16 R/B 4.1 23:15:50 10° NW 23:18:02 23° NW 23:18:02 23° NW
Cosmos 2360 Rocket 3.7 23:16:26 10° NNW 23:19:17 31° NNW 23:19:17 31° NNW
Cosmos 2322 Rocket 4.1 23:22:45 10° NW 23:24:52 22° NW 23:24:52 22° NW
Cosmos 2333 Rocket 3.6 23:38:55 10° NNW 23:42:25 35° N 23:42:25 35° N
Cosmos 2237 Rocket 4.2 23:40:51 10° N 23:45:13 22° NE 23:46:25 21° ENE
SL-16 R/B 3.9 23:48:42 31° ENE 23:49:08 31° ENE 23:54:30 10° N
